Location: Boursonne
(49.2024°N, 3.0468°E)
Time: 03:46:12
(UTC+00:00)

Meteor 2-4 Rocket - Pass Details

Date: 03 March 2021
Orbit: 799 x 908 km, 81.2° (Epoch: 17 April)

Event Time Altitude Azimuth Distance (km) Brightness Sun altitude
Rises 18:44:49 0° 349° (NNW) 3,484 7.1 -12.3°
Reaches altitude 10° 18:47:16 10° 351° (N) 2,556 6.4 -12.7°
Maximum altitude 18:53:06 74° 77° (ENE) 937 3.8 -13.6°
Drops below altitude 10° 18:59:01 10° 162° (SSE) 2,583 6.0 -14.6°
Sets 19:01:29 0° 164° (SSE) 3,523 6.7 -15.0°
